Home > Weather > Pago Pago > Past weeks

Flag for American Samoa Weather for the Past 2 Weeks in Pago Pago, American Samoa

Now
81 °F

Cloudy.


Feels Like: 89 °F
Forecast: 78 / 82 °F
Wind: 22 mph from Southeast

Location: Pago Pago / Int. Airp.

Current Time: Apr 30, 2016 at 9:46:29 AM

Latest Report: Apr 30, 2016 at 8:51 AM


Visibility: 10 mi

Pressure: 29.82 "Hg

Humidity: 92%

Dew Point: 79 °F

Location of Pago PagoLocation

Historic Weather in Pago Pago — Graph

°F

Pago Pago Temperature Yesterday

Maximum temperature yesterday: 86 °F (at 10:50 AM)
Minimum temperature yesterday: 76 °F (at 10:50 PM)
Average temperature yesterday: 82 °F

High & Low Weather Summary for the Past Weeks

 TemperatureHumidityPressure
High87 °F (Apr 17, 1:52 PM)100% (Apr 16, 9:50 PM)29.90 "Hg (Apr 16, 9:50 PM)
Low76 °F (Apr 29, 10:50 PM)71% (Apr 21, 10:50 AM)29.51 "Hg (Apr 23, 4:52 AM)
Average82 °F88%29.77 "Hg
* Reported Apr 15 7:53 AM — Apr 30 7:51 AM, Pago Pago, Weather by CustomWeather, © 2016

Note: Actual official high and low records may vary slightly from our data, if they occured in-between our weather recording intervals... More about our weather records

Advertising

Pago Pago Weather History for the Previous 24 Hours

Scroll right to see more
 ConditionsComfort  
Time TempWeatherWind HumidityBarometerVisibility
7:51 AM
Sat, Apr 30
80 °FCloudy.20 mph93%29.80 "Hg10 mi
6:51 AM79 °FCloudy.15 mph94%29.79 "Hg10 mi
5:51 AM79 °FOvercast.16 mph94%29.77 "Hg10 mi
4:54 AM80 °FOvercast.20 mph96%29.76 "Hg10 mi
4:00 AM79 °FSprinkles. Overcast.13 mph96%29.77 "Hg7 mi
3:54 AM79 °FSprinkles. Overcast.13 mph96%29.77 "Hg7 mi
2:00 AM80 °FOvercast.20 mph93%29.79 "Hg10 mi
1:53 AM80 °FOvercast.20 mph93%29.79 "Hg10 mi
12:50 AM79 °FSprinkles. Overcast.15 mph96%29.81 "Hg5 mi
11:58 PM
Fri, Apr 29
79 °FLots of rain. Overcast.15 mph94%29.84 "Hg1 mi
10:50 PM76 °FSprinkles. Overcast.3 mph97%29.85 "Hg4 mi
9:51 PM77 °FLots of rain. Overcast.6 mph96%29.86 "Hg4 mi
8:50 PM77 °FRain showers. Mostly cloudy.3 mph97%29.85 "Hg5 mi
7:50 PM78 °FRain showers. Mostly cloudy.17 mph97%29.83 "Hg1 mi
6:50 PM79 °FLots of rain. Mostly cloudy.16 mph94%29.80 "Hg0 mi
5:50 PM82 °FSprinkles. Broken clouds.15 mph89%29.79 "Hg2 mi
4:50 PM81 °FSprinkles. Cloudy.16 mph87%29.78 "Hg6 mi
4:00 PM84 °FBroken clouds.15 mph80%29.78 "Hg12 mi
3:50 PM84 °FBroken clouds.15 mph80%29.78 "Hg12 mi
1:50 PM85 °FBroken clouds.14 mph78%29.80 "Hg12 mi
1:00 PM86 °FBroken clouds.16 mph77%29.82 "Hg12 mi
12:51 PM86 °FBroken clouds.16 mph77%29.82 "Hg12 mi
12:00 PM85 °FBroken clouds.14 mph80%29.83 "Hg12 mi
11:52 AM85 °FBroken clouds.14 mph80%29.83 "Hg12 mi
11:00 AM86 °FBroken clouds.15 mph76%29.86 "Hg12 mi
10:50 AM86 °FBroken clouds.15 mph76%29.86 "Hg12 mi
9:51 AM85 °FBroken clouds.17 mph78%29.88 "Hg12 mi
9:00 AM82 °FBroken clouds.16 mph79%29.88 "Hg12 mi
Weather by CustomWeather, © 2016

See weather overviewHow to use our weather pages